Date String (YYYY-MM-DD hh:mm:ss) UTC,Instrument flags,absolute air pressure of the measurement (hPa),sample flow rate (lpm),inlet stack bypass flow (lpm),air temperature of the measurement (°C),ambient temperature measured by the external sensor (°C),aerosol sample conditioner tube jacket temperature (°C),OPC LED temperature (°C),internal box temperature (°C),relative humidity of the measurement (%),span deviation,mass concentration of particles derived from Lorenz-Mie calculation of OPC scattering (μg/m³),mass concentration of particles derived from Lorenz-Mie calculation of OPC scattering (μg/m³),mass concentration of particles derived from Lorenz-Mie calculation of OPC scattering (μg/m³)
DateTimeUTC,F1_M11,P_M11,Q1_M11,Q2_M11,T1_M11,T2_M11,T3_M11,T4_M11,T5_M11,U1_M11,ZSPAN_M11,X0_M11,X2_M11,X1_M11
2023-10-20 22:00:00,SystemResetWarning,0829.9,4.99,000.00,028.1,024.7,000.0,036.3,029.7,8.5,0000.0,0011.61,0002.20,0000.87
2023-10-20 22:01:00,SystemResetWarning,0829.8,5.01,000.00,028.0,024.3,000.0,036.3,029.6,8.6,0000.0,0012.18,0002.27,0000.87
2023-10-20 22:02:00,SystemResetWarning,0829.8,4.99,000.00,027.9,024.7,000.0,036.2,029.5,8.7,0000.0,0011.78,0002.31,0000.87
2023-10-20 22:03:00,SystemResetWarning,0829.8,5.00,000.00,027.9,025.1,000.0,036.3,029.5,8.7,0000.0,0011.09,0002.31,0000.86
2023-10-20 22:04:00,SystemResetWarning,0829.8,5.01,000.00,027.9,025.5,000.0,036.3,029.6,8.7,0000.0,0010.62,0002.24,0000.86
2023-10-20 22:05:00,SystemResetWarning,0829.8,5.00,000.00,027.9,026.0,000.0,036.3,029.7,8.7,0000.0,0010.68,0002.25,0000.87
2023-10-20 22:06:00,SystemResetWarning,0829.8,5.00,000.00,028.0,026.4,000.0,036.3,029.8,8.7,0000.0,0010.89,0002.25,0000.87
2023-10-20 22:07:00,SystemResetWarning,0829.8,5.00,000.00,028.0,026.7,000.0,036.3,029.9,8.6,0000.0,0010.95,0002.14,0000.86
2023-10-20 22:08:00,SystemResetWarning,0829.8,5.01,000.00,028.1,027.0,000.0,036.4,030.0,8.7,0000.0,0010.66,0002.12,0000.86
2023-10-20 22:09:00,SystemResetWarning,0829.8,4.98,000.00,028.1,026.6,000.0,036.4,030.0,8.6,0000.0,0011.03,0002.15,0000.87
2023-10-20 22:10:00,SystemResetWarning,0829.8,5.00,000.00,028.1,024.9,000.0,036.3,029.8,8.6,0000.0,0010.74,0002.18,0000.87
2023-10-20 22:11:00,SystemResetWarning,0829.8,5.01,000.00,028.0,024.4,000.0,036.3,029.7,8.6,0000.0,0009.24,0002.15,0000.86
2023-10-20 22:12:00,SystemResetWarning,0829.8,5.01,000.00,028.0,024.6,000.0,036.3,029.6,8.5,0000.0,0008.49,0002.05,0000.87
2023-10-20 22:13:00,SystemResetWarning,0829.8,5.00,000.00,027.9,025.0,000.0,036.3,029.5,8.6,0000.0,0009.06,0002.03,0000.86
2023-10-20 22:14:00,SystemResetWarning,0829.8,5.00,000.00,027.9,025.5,000.0,036.3,029.6,8.7,0000.0,0009.20,0002.01,0000.86
2023-10-20 22:15:00,SystemResetWarning,0829.8,5.00,000.00,028.0,025.9,000.0,036.3,029.7,8.8,0000.0,0010.02,0002.04,0000.86
2023-10-20 22:16:00,SystemResetWarning,0829.8,5.00,000.00,028.0,026.3,000.0,036.3,029.8,8.7,0000.0,0011.38,0002.00,0000.84
2023-10-20 22:17:00,SystemResetWarning,0829.8,5.00,000.00,028.1,026.7,000.0,036.4,029.9,8.8,0000.0,0011.18,0001.97,0000.82
2023-10-20 22:18:00,SystemResetWarning,0829.8,4.99,000.00,028.1,026.9,000.0,036.4,030.0,8.8,0000.0,0010.76,0001.98,0000.82
2023-10-20 22:19:00,SystemResetWarning,0829.8,4.98,000.00,028.2,025.9,000.0,036.4,029.9,8.7,0000.0,0010.45,0001.95,0000.82
2023-10-20 22:20:00,SystemResetWarning,0829.8,5.00,000.00,028.1,024.4,000.0,036.3,029.7,8.7,0000.0,0010.75,0001.98,0000.81
2023-10-20 22:21:00,SystemResetWarning,0829.7,5.01,000.00,028.0,024.4,000.0,036.3,029.6,8.8,0000.0,0010.54,0001.88,0000.80
2023-10-20 22:22:00,SystemResetWarning,0829.7,5.01,000.00,027.9,024.7,000.0,036.3,029.5,8.8,0000.0,0010.51,0001.88,0000.80
2023-10-20 22:23:00,SystemResetWarning,0829.8,5.00,000.00,027.9,025.2,000.0,036.3,029.5,8.8,0000.0,0010.55,0001.86,0000.79
2023-10-20 22:24:00,SystemResetWarning,0829.8,4.99,000.00,027.9,025.6,000.0,036.3,029.6,8.8,0000.0,0009.77,0001.86,0000.78
2023-10-20 22:25:00,SystemResetWarning,0829.8,5.00,000.00,028.0,026.0,000.0,036.3,029.7,8.9,0000.0,0009.40,0001.81,0000.78
2023-10-20 22:26:00,SystemResetWarning,0829.7,5.00,000.00,028.0,026.4,000.0,036.3,029.8,8.9,0000.0,0009.45,0001.82,0000.78
2023-10-20 22:27:00,SystemResetWarning,0829.7,5.00,000.00,028.1,026.7,000.0,036.3,029.9,8.9,0000.0,0008.86,0001.87,0000.79
2023-10-20 22:28:00,SystemResetWarning,0829.7,4.99,000.00,028.1,026.6,000.0,036.3,030.0,8.8,0000.0,0008.85,0001.87,0000.79
2023-10-20 22:29:00,SystemResetWarning,0829.7,4.99,000.00,028.1,025.0,000.0,036.3,029.8,8.8,0000.0,0009.10,0001.94,0000.80
2023-10-20 22:30:00,SystemResetWarning,0829.7,5.02,000.00,028.0,024.2,000.0,036.3,029.7,8.7,0000.0,0009.39,0002.04,0000.82
2023-10-20 22:31:00,SystemResetWarning,0829.7,5.00,000.00,028.0,024.5,000.0,036.3,029.6,8.8,0000.0,0009.81,0002.09,0000.82
2023-10-20 22:32:00,SystemResetWarning,0829.8,5.00,000.00,027.9,024.9,000.0,036.3,029.5,9.0,0000.0,0010.13,0002.15,0000.83
2023-10-20 22:33:00,SystemResetWarning,0829.8,5.00,000.00,027.9,025.3,000.0,036.3,029.5,9.0,0000.0,0009.95,0002.11,0000.83
2023-10-20 22:34:00,SystemResetWarning,0829.8,5.00,000.00,027.9,025.8,000.0,036.3,029.6,8.9,0000.0,0009.79,0002.09,0000.83
2023-10-20 22:35:00,SystemResetWarning,0829.7,5.00,000.00,028.0,026.2,000.0,036.3,029.8,8.7,0000.0,0010.38,0002.12,0000.85
2023-10-20 22:36:00,SystemResetWarning,0829.7,5.00,000.00,028.0,026.5,000.0,036.3,029.9,8.7,0000.0,0010.35,0002.10,0000.86
2023-10-20 22:37:00,SystemResetWarning,0829.8,5.01,000.00,028.1,026.8,000.0,036.4,030.0,8.8,0000.0,0009.67,0002.10,0000.86
2023-10-20 22:38:00,SystemResetWarning,0829.8,4.98,000.00,028.1,026.1,000.0,036.4,029.9,8.7,0000.0,0009.54,0002.12,0000.86
2023-10-20 22:39:00,SystemResetWarning,0829.7,5.00,000.00,028.0,024.5,000.0,036.3,029.7,8.8,0000.0,0010.39,0002.16,0000.87
2023-10-20 22:40:00,SystemResetWarning,0829.7,5.02,000.00,028.0,024.3,000.0,036.3,029.6,9.0,0000.0,0011.21,0002.15,0000.86
2023-10-20 22:41:00,SystemResetWarning,0829.7,4.99,000.00,027.9,024.6,000.0,036.2,029.5,9.1,0000.0,0011.02,0002.03,0000.85
2023-10-20 22:42:00,SystemResetWarning,0829.8,5.00,000.00,027.9,025.0,000.0,036.3,029.5,8.8,0000.0,0010.15,0001.95,0000.85
2023-10-20 22:43:00,SystemResetWarning,0829.7,5.01,000.00,027.9,025.5,000.0,036.3,029.6,8.7,0000.0,0009.68,0001.97,0000.86
2023-10-20 22:44:00,SystemResetWarning,0829.7,5.00,000.00,027.9,025.9,000.0,036.3,029.7,8.6,0000.0,0009.75,0002.03,0000.86
2023-10-20 22:45:00,SystemResetWarning,0829.8,5.01,000.00,028.0,026.3,000.0,036.3,029.8,8.7,0000.0,0010.33,0002.09,0000.86
2023-10-20 22:46:00,SystemResetWarning,0829.8,5.00,000.00,028.0,026.6,000.0,036.3,029.9,8.7,0000.0,0010.24,0002.06,0000.86
2023-10-20 22:47:00,SystemResetWarning,0829.8,5.00,000.00,028.1,026.9,000.0,036.3,030.0,8.7,0000.0,0010.69,0002.08,0000.86
2023-10-20 22:48:00,SystemResetWarning,0829.8,4.99,000.00,028.1,026.4,000.0,036.3,030.0,8.6,0000.0,0011.51,0002.12,0000.86
2023-10-20 22:49:00,SystemResetWarning,0829.8,5.00,000.00,028.1,024.7,000.0,036.3,029.8,8.8,0000.0,0011.88,0002.09,0000.86
2023-10-20 22:50:00,SystemResetWarning,0829.7,5.02,000.00,028.0,024.3,000.0,036.3,029.7,8.7,0000.0,0011.24,0002.04,0000.86
2023-10-20 22:51:00,SystemResetWarning,0829.7,5.00,000.00,027.9,024.6,000.0,036.2,029.6,8.8,0000.0,0010.60,0002.01,0000.86
2023-10-20 22:52:00,SystemResetWarning,0829.7,5.00,000.00,027.9,025.0,000.0,036.3,029.5,9.0,0000.0,0010.42,0002.06,0000.86
2023-10-20 22:53:00,SystemResetWarning,0829.7,5.01,000.00,027.9,025.5,000.0,036.3,029.6,9.0,0000.0,0010.34,0002.06,0000.85
2023-10-20 22:54:00,SystemResetWarning,0829.7,5.00,000.00,027.9,025.9,000.0,036.3,029.7,8.7,0000.0,0010.13,0002.00,0000.85
2023-10-20 22:55:00,SystemResetWarning,0829.7,5.00,000.00,028.0,026.3,000.0,036.3,029.8,8.7,0000.0,0010.06,0001.87,0000.83
2023-10-20 22:56:00,SystemResetWarning,0829.7,5.00,000.00,028.0,026.6,000.0,036.3,029.9,8.7,0000.0,0010.07,0001.85,0000.83
2023-10-20 22:57:00,SystemResetWarning,0829.7,5.00,000.00,028.1,026.9,000.0,036.3,029.9,8.8,0000.0,0009.29,0001.87,0000.83
2023-10-20 22:58:00,SystemResetWarning,0829.7,5.00,000.00,028.2,026.6,000.0,036.3,030.0,8.7,0000.0,0009.83,0001.88,0000.84
2023-10-20 22:59:00,SystemResetWarning,0829.7,4.99,000.00,028.1,024.9,000.0,036.3,029.8,8.6,0000.0,0009.02,0001.79,0000.83
